GW2946 Weather Reports


time (UTC)temp
C
wind
direction
speed
KPH
gust
KPH
rain 1hr
cm
rain 24hr
cm
rain mn
cm
humidity
%
barometer
mb
20260503022245 5 328 1.6 1.6 0.00 0.03 0.03 75 1018.4
20260503021742 5 2 0.0 0.0 0.00 0.03 0.03 77 1018.4
20260503021238 5 340 1.6 1.6 0.00 0.03 0.03 77 1018.5
20260503020736 5 339 1.6 1.6 0.00 0.03 0.03 78 1018.4
20260503020234 5 340 1.6 1.6 0.00 0.03 0.03 70 1018.3
20260503015730 5 340 1.6 1.6 0.00 0.03 0.03 71 1018.4
20260503015227 5 340 1.6 1.6 0.00 0.03 0.03 73 1018.2
20260503014723 5 340 1.6 1.6 0.00 0.03 0.03 73 1018.2
20260503014221 6 340 1.6 1.6 0.00 0.03 0.03 74 1018.0
20260503013718 6 340 1.6 3.2 0.00 0.03 0.03 70 1018.1
20260503013216 6 342 3.2 3.2 0.00 0.03 0.03 71 1018.1
20260503012713 6 343 3.2 3.2 0.00 0.03 0.03 70 1018.0
20260503012210 6 343 3.2 3.2 0.00 0.03 0.03 68 1018.0
20260503011706 6 344 3.2 3.2 0.00 0.03 0.03 67 1018.0
20260503011203 6 350 3.2 4.8 0.00 0.03 0.03 66 1017.8
20260503010659 6 6 3.2 3.2 0.00 0.03 0.03 66 1017.9
20260503010156 6 348 3.2 3.2 0.00 0.03 0.03 65 1018.0
20260503005654 6 10 3.2 4.8 0.00 0.03 0.03 65 1017.9
20260503005151 6 359 4.8 4.8 0.00 0.03 0.03 65 1017.8
20260503004647 6 353 0.0 1.6 0.00 0.03 0.03 66 1017.8
20260503004145 6 357 1.6 3.2 0.00 0.03 0.03 65 1017.9
20260503003642 6 342 3.2 3.2 0.00 0.03 0.03 66 1017.7
20260503003134 6 28 1.6 1.6 0.00 0.03 0.03 65 1017.7
20260503002631 7 358 0.0 0.0 0.00 0.03 0.03 66 1017.8
20260503002128 7 10 1.6 1.6 0.00 0.03 0.03 65 1017.7
20260503001623 7 37 3.2 4.8 0.00 0.03 0.03 62 1017.8
20260503001121 7 1 1.6 1.6 0.00 0.03 0.03 65 1017.7
20260503000618 7 357 3.2 3.2 0.00 0.03 0.03 65 1017.6
20260503000115 7 341 1.6 1.6 0.00 0.03 0.03 63 1017.8
20260502235612 7 5 6.4 9.7 0.00 0.03 0.03 62 1017.7
20260502235110 7 31 3.2 4.8 0.00 0.03 0.03 62 1017.5
20260502234605 7 57 3.2 4.8 0.00 0.03 0.03 62 1017.5
20260502234103 7 47 4.8 6.4 0.00 0.03 0.03 60 1017.5
20260502233558 7 49 3.2 4.8 0.00 0.03 0.03 61 1017.5
20260502233055 7 10 4.8 6.4 0.00 0.03 0.03 60 1017.4
20260502232551 7 9 11.3 14.5 0.00 0.03 0.03 57 1017.4
20260502232049 7 349 11.3 12.9 0.00 0.03 0.03 53 1017.3
20260502231545 7 349 11.3 12.9 0.00 0.03 0.03 54 1017.4
20260502231043 7 352 9.7 12.9 0.00 0.03 0.03 53 1017.4
20260502230541 7 343 9.7 12.9 0.00 0.03 0.03 53 1017.3
20260502230040 8 342 16.1 17.7 0.00 0.03 0.03 54 1017.4
20260502225535 8 7 3.2 4.8 0.00 0.03 0.03 54 1017.3
20260502225032 8 349 14.5 16.1 0.00 0.03 0.03 54 1017.4
20260502224528 8 328 14.5 14.5 0.00 0.03 0.03 55 1017.3
20260502224025 8 330 14.5 17.7 0.00 0.03 0.03 56 1017.3
20260502223523 8 14 8.0 11.3 0.00 0.03 0.03 59 1017.2
20260502223021 8 354 4.8 9.7 0.00 0.03 0.03 59 1017.3
20260502222518 8 356 8.0 11.3 0.00 0.03 0.03 57 1017.2
20260502222014 8 346 8.0 9.7 0.00 0.03 0.03 56 1017.2
20260502221510 8 335 8.0 11.3 0.00 0.03 0.03 57 1017.2
20260502221008 8 2 9.7 11.3 0.00 0.03 0.03 52 1017.1
20260502220503 8 23 11.3 12.9 0.00 0.03 0.03 54 1017.3
20260502220000 8 45 6.4 9.7 0.00 0.03 0.03 54 1017.1
20260502215457 8 8 9.7 12.9 0.00 0.03 0.03 56 1017.1
20260502214954 8 35 9.7 11.3 0.00 0.03 0.03 56 1017.1
20260502214451 8 16 14.5 16.1 0.00 0.03 0.03 60 1017.2
20260502213948 8 357 9.7 14.5 0.00 0.03 0.03 58 1016.7
20260502213445 8 341 8.0 9.7 0.00 0.03 0.03 54 1017.0
20260502212943 9 327 14.5 14.5 0.00 0.03 0.03 50 1016.9
20260502212442 8 342 11.3 12.9 0.00 0.03 0.03 56 1017.0
20260502211939 8 340 14.5 17.7 0.00 0.03 0.03 58 1017.0
20260502211434 8 321 14.5 16.1 0.00 0.03 0.03 51 1016.9
20260502210932 8 339 14.5 16.1 0.00 0.03 0.03 56 1016.7
20260502210428 9 328 16.1 17.7 0.00 0.03 0.03 53 1017.0
20260502205926 8 314 16.1 20.9 0.00 0.03 0.03 60 1016.8
20260502205422 8 355 12.9 16.1 0.00 0.03 0.03 52 1016.7
20260502204919 8 352 9.7 11.3 0.00 0.03 0.03 54 1016.9
20260502204416 9 341 16.1 17.7 0.00 0.03 0.03 53 1017.0
20260502203914 9 336 14.5 16.1 0.00 0.03 0.03 53 1017.1
20260502203411 8 339 16.1 17.7 0.00 0.03 0.03 55 1017.2
20260502202906 9 331 17.7 17.7 0.00 0.03 0.03 53 1016.9
20260502202404 8 313 17.7 20.9 0.00 0.03 0.03 54 1016.9
20260502201902 8 318 17.7 20.9 0.00 0.03 0.03 54 1016.9
20260502201357 9 347 11.3 14.5 0.00 0.03 0.03 51 1017.0
20260502200854 10 329 17.7 20.9 0.00 0.03 0.03 49 1017.0
20260502200350 8 341 19.3 24.1 0.00 0.03 0.03 57 1017.0
20260502195849 8 349 12.9 14.5 0.00 0.03 0.03 55 1017.1
20260502195345 9 33 11.3 16.1 0.00 0.03 0.03 59 1017.2
20260502194842 9 298 12.9 14.5 0.00 0.03 0.03 54 1017.1
20260502194338 8 342 16.1 20.9 0.00 0.03 0.03 55 1017.1
20260502193834 8 326 19.3 22.5 0.00 0.03 0.03 55 1017.2
20260502193332 8 339 17.7 17.7 0.00 0.03 0.03 56 1017.2
20260502192827 9 313 17.7 20.9 0.00 0.03 0.03 59 1017.3
20260502192324 10 334 20.9 24.1 0.00 0.03 0.03 58 1017.3
20260502191821 8 344 12.9 12.9 0.00 0.03 0.03 54 1017.4
20260502191320 8 355 20.9 24.1 0.00 0.03 0.03 56 1017.2
20260502190816 8 355 14.5 20.9 0.00 0.03 0.03 52 1017.3
20260502190314 8 344 11.3 12.9 0.00 0.03 0.03 53 1017.3
20260502185809 8 350 14.5 16.1 0.00 0.03 0.03 56 1017.4
20260502185306 9 331 17.7 20.9 0.00 0.03 0.03 58 1017.5
20260502184802 8 337 9.7 11.3 0.00 0.03 0.03 55 1017.4
20260502184257 8 2 14.5 17.7 0.00 0.03 0.03 55 1017.6
20260502183754 8 345 14.5 16.1 0.00 0.03 0.03 54 1017.6
20260502183251 8 330 9.7 11.3 0.00 0.03 0.03 55 1017.5
20260502182746 9 298 9.7 12.9 0.00 0.03 0.03 56 1017.4
20260502182241 9 353 14.5 16.1 0.00 0.03 0.03 54 1017.6
20260502181737 8 6 9.7 12.9 0.00 0.03 0.03 61 1017.5
20260502181232 8 336 12.9 14.5 0.00 0.03 0.03 60 1017.6
20260502180728 8 343 24.1 27.4 0.00 0.03 0.03 54 1017.5
20260502180225 8 329 14.5 17.7 0.00 0.03 0.03 55 1017.5
20260502170144 8 317 14.5 16.1 0.00 0.03 0.03 59 1017.7
20260502164130 8 335 14.5 14.5 0.00 0.03 0.03 58 1017.9
20260502163626 8 325 19.3 22.5 0.00 0.03 0.03 57 1017.9
20260502163123 8 323 14.5 16.1 0.00 0.03 0.03 58 1018.1
20260502162620 8 2 14.5 16.1 0.00 0.03 0.03 63 1018.0
20260502162117 7 337 20.9 24.1 0.00 0.03 0.03 64 1018.1
20260502161614 7 299 14.5 16.1 0.00 0.03 0.03 61 1018.0
20260502161111 7 338 16.1 16.1 0.00 0.03 0.03 61 1018.0
20260502160610 8 319 20.9 24.1 0.00 0.03 0.03 57 1018.1
20260502160108 7 351 14.5 17.7 0.00 0.03 0.03 63 1018.0
20260502152022 8 330 14.5 14.5 0.00 0.03 0.03 63 1018.1
20260502151519 7 336 14.5 20.9 0.00 0.03 0.03 67 1018.2
20260502151016 7 328 16.1 17.7 0.00 0.03 0.03 64 1017.9
20260502150514 7 17 12.9 16.1 0.00 0.03 0.03 65 1018.0
20260502130359 4 330 9.7 11.3 0.00 0.03 0.03 81 1017.8
20260502123341 2 337 9.7 11.3 0.00 0.03 0.03 99 1017.7
20260502122839 2 3 8.0 11.3 0.00 0.03 0.03 99 1017.8
20260502122334 2 346 6.4 6.4 0.00 0.03 0.03 99 1017.8
20260502121833 2 327 8.0 11.3 0.00 0.03 0.03 99 1017.6
20260502121330 2 332 8.0 9.7 0.00 0.03 0.03 99 1017.7
20260502120827 2 328 4.8 4.8 0.00 0.03 0.03 99 1017.6
20260502120323 1 340 4.8 4.8 0.00 0.03 0.03 99 1017.6
20260502115821 3 67 0.0 0.0 0.00 0.03 0.03 99 1017.7
20260502115318 2 68 0.0 0.0 0.00 0.03 0.03 99 1017.5
20260502114814 3 68 0.0 0.0 0.00 0.03 0.03 99 1017.9
20260502114311 2 68 0.0 0.0 0.00 0.03 0.03 99 1017.8
20260502113808 1 68 0.0 0.0 0.00 0.03 0.03 99 1017.6
20260502113306 2 68 0.0 0.0 0.00 0.03 0.03 99 1017.9
20260502112804 1 68 0.0 0.0 0.00 0.03 0.03 99 1017.6
20260502112301 0 68 0.0 0.0 0.00 0.03 0.03 99 1017.8
20260502111758 0 68 0.0 0.0 0.00 0.03 0.03 99 1017.7
20260502111255 0 69 0.0 0.0 0.00 0.03 0.03 99 1017.7
20260502110753 0 69 0.0 0.0 0.00 0.03 0.03 99 1017.6
20260502110251 0 66 0.0 0.0 0.00 0.03 0.03 99 1017.4
20260502105748 0 66 0.0 0.0 0.00 0.03 0.03 99 1017.6
20260502105244 0 66 0.0 0.0 0.00 0.03 0.03 99 1017.4
20260502104742 0 66 0.0 0.0 0.00 0.03 0.03 99 1017.4
20260502104240 0 66 0.0 0.0 0.00 0.03 0.03 99 1017.7
20260502103737 0 66 0.0 0.0 0.00 0.03 0.03 99 1017.3
20260502103234 0 66 0.0 0.0 0.00 0.03 0.03 99 1017.4
20260502102731 0 65 0.0 0.0 0.00 0.03 0.03 99 1017.4
20260502102228 0 65 0.0 0.0 0.00 0.03 0.03 99 1017.5
20260502101726 0 64 0.0 0.0 0.00 0.03 0.03 99 1017.3
20260502101224 0 64 0.0 0.0 0.00 0.03 0.03 99 1017.5
20260502100722 0 64 0.0 0.0 0.00 0.03 0.03 99 1017.4
20260502100220 0 64 0.0 0.0 0.00 0.03 0.03 99 1017.2
20260502091154 0 201 0.0 0.0 0.00 0.03 0.03 99 1017.6
20260502090651 0 201 0.0 0.0 0.00 0.03 0.03 99 1017.5
20260502090148 0 201 0.0 0.0 0.00 0.03 0.03 99 1017.3
20260502080111 0 44 0.0 0.0 0.00 0.03 0.03 99 1017.3
20260502071044 0 46 0.0 0.0 0.13 0.03 0.03 99 1016.9
20260502070542 0 41 0.0 0.0 0.13 0.03 0.03 99 1017.1
20260502070039 0 47 0.0 0.0 0.00 0.00 0.00 99 1017.0
20260502065538 0 48 0.0 0.0 0.00 0.00 0.00 99 1017.1
20260502065034 0 47 0.0 0.0 0.00 0.00 0.00 99 1017.2
20260502064533 1 55 0.0 0.0 0.00 0.00 0.00 99 1017.3
20260502064024 1 43 0.0 0.0 0.00 0.00 0.00 99 1017.3
20260502063522 1 42 0.0 0.0 0.00 0.00 0.00 99 1017.2
20260502063020 1 42 0.0 0.0 0.00 0.00 0.00 99 1017.3
20260502062516 1 42 0.0 0.0 0.00 0.00 0.00 99 1017.4
20260502062015 2 42 0.0 0.0 0.00 0.00 0.00 99 1017.5
20260502061512 1 42 0.0 0.0 0.00 0.00 0.00 99 1017.3
20260502061009 2 42 0.0 0.0 0.00 0.00 0.00 99 1017.4
20260502060504 2 101 0.0 0.0 0.00 0.00 0.00 99 1017.5
20260502060001 2 39 0.0 0.0 0.00 0.00 0.00 99 1017.6
20260502055459 1 39 0.0 0.0 0.00 0.00 0.00 99 1017.6
20260502054958 1 39 0.0 0.0 0.00 0.00 0.00 99 1017.6
20260502054455 2 39 0.0 0.0 0.00 0.00 0.00 99 1017.7
20260502053952 2 39 0.0 0.0 0.00 0.00 0.00 99 1017.6
20260502053449 2 40 0.0 0.0 0.00 0.00 0.00 99 1017.7
20260502052947 2 39 0.0 0.0 0.00 0.00 0.00 99 1017.6
20260502052445 2 39 0.0 0.0 0.00 0.00 0.00 99 1017.7
20260502051944 2 39 0.0 0.0 0.00 0.00 0.00 99 1017.5
20260502051441 2 40 0.0 0.0 0.00 0.00 0.00 99 1017.5
20260502050938 2 47 0.0 0.0 0.00 0.00 0.00 99 1017.4
20260502050434 3 47 0.0 0.0 0.00 0.00 0.00 99 1017.7
20260502045932 3 66 0.0 0.0 0.00 0.00 0.00 99 1017.6
20260502045428 2 70 0.0 0.0 0.00 0.00 0.00 99 1017.5
20260502044925 3 91 0.0 0.0 0.00 0.00 0.00 99 1017.5
20260502044421 3 31 0.0 0.0 0.00 0.00 0.00 99 1017.6
20260502043918 3 31 0.0 0.0 0.00 0.00 0.00 99 1017.3
20260502043416 3 47 0.0 0.0 0.00 0.00 0.00 99 1017.7
20260502042915 3 45 0.0 0.0 0.00 0.00 0.00 99 1017.6
20260502042413 2 51 0.0 0.0 0.00 0.00 0.00 99 1017.5
20260502041910 3 55 0.0 1.6 0.00 0.00 0.00 98 1017.7
20260502041408 3 7 0.0 0.0 0.00 0.00 0.00 99 1017.6
20260502040905 3 6 0.0 0.0 0.00 0.00 0.00 99 1017.6
20260502040401 3 245 0.0 0.0 0.00 0.00 0.00 98 1017.7
20260502035857 3 179 3.2 3.2 0.00 0.15 0.15 98 1017.7
20260502035354 3 158 3.2 3.2 0.00 0.15 0.15 98 1018.0
20260502034851 3 191 3.2 3.2 0.00 0.15 0.15 98 1017.8
20260502034350 3 174 3.2 3.2 0.00 0.15 0.15 98 1017.8
20260502033848 4 181 1.6 1.6 0.00 0.15 0.15 98 1017.8
20260502033345 4 172 3.2 3.2 0.00 0.15 0.15 97 1017.7
20260502032841 4 185 4.8 4.8 0.00 0.15 0.15 97 1017.9
20260502032338 4 190 4.8 4.8 0.00 0.15 0.15 97 1017.7
20260502031836 4 196 3.2 3.2 0.00 0.15 0.15 96 1017.8
20260502031334 4 199 0.0 0.0 0.00 0.15 0.15 96 1017.6
20260502030832 4 137 0.0 0.0 0.00 0.15 0.15 96 1017.5
20260502030330 4 137 0.0 0.0 0.00 0.15 0.15 96 1017.6
20260502025826 5 65 1.6 1.6 0.00 0.15 0.15 96 1017.6
20260502025324 5 58 0.0 0.0 0.00 0.15 0.15 96 1017.6
20260502024822 5 65 0.0 1.6 0.00 0.15 0.15 96 1017.7
20260502024320 5 48 4.8 6.4 0.00 0.15 0.15 95 1017.9
20260502023817 5 52 1.6 3.2 0.00 0.15 0.15 95 1017.7
20260502023315 5 60 3.2 4.8 0.30 0.15 0.15 94 1017.8
20260502022813 5 60 6.4 6.4 0.48 0.15 0.15 93 1017.6
20260502022309 5 21 4.8 6.4 0.18 0.10 0.10 92 1017.6